Home > Weather > Lippstadt > Past weeks

Flag for Germany Weather for the Past 2 Weeks in Lippstadt, North Rhine-Westphalia, Germany

Now
37 °F

Clear.


Feels Like: 31 °F
Forecast: 41 / 53 °F
Wind: 9 mph from South

Location: Paderborn / Lippstadt

Current Time: Apr 29, 2016 at 2:23:27 AM

Latest Report: Apr 29, 2016 at 1:50 AM


Visibility: 10 mi

Pressure: 29.98 "Hg

Humidity: 87%

Dew Point: 34 °F

Location of LippstadtLocation

Historic Weather in Lippstadt — Graph

°F

Lippstadt Temperature Yesterday

Maximum temperature yesterday: 48 °F (at 4:50 PM)
Minimum temperature yesterday: 36 °F (at 1:20 AM)
Average temperature yesterday: 41 °F

High & Low Weather Summary for the Past Weeks

 TemperatureHumidityPressure
High63 °F (Apr 21, 2:50 PM)100% (Apr 14, 12:20 AM)30.45 "Hg (Apr 14, 12:20 AM)
Low32 °F (Apr 24, 4:20 PM)30% (Apr 21, 3:50 PM)29.45 "Hg (Apr 26, 10:50 AM)
Average45 °F76%29.90 "Hg
* Reported Apr 14 12:20 AM — Apr 29 12:50 AM, Lippstadt, Weather by CustomWeather, © 2016

Note: Actual official high and low records may vary slightly from our data, if they occured in-between our weather recording intervals... More about our weather records

Advertising

Lippstadt Weather History for the Previous 24 Hours

Scroll right to see more
 ConditionsComfort  
Time TempWeatherWind HumidityBarometerVisibility
12:50 AM
Fri, Apr 29
37 °FClear.8 mph93%29.98 "Hg10 mi
12:20 AM37 °FClear.8 mph93%29.98 "Hg10 mi
11:50 PM
Thu, Apr 28
39 °FClear.9 mph87%29.98 "Hg10 mi
11:20 PM39 °FClear.9 mph93%29.98 "Hg10 mi
10:50 PM37 °FClear.6 mph100%29.98 "Hg10 mi
10:20 PM39 °FPassing clouds.7 mph93%29.98 "HgN/A
9:50 PM39 °FPassing clouds.3 mph93%29.98 "HgN/A
9:20 PM39 °FScattered clouds.9 mph100%29.98 "HgN/A
8:50 PM39 °FScattered showers. Scattered clouds.2 mph100%29.98 "HgN/A
8:20 PM39 °FScattered showers. Scattered clouds.3 mph100%29.98 "HgN/A
7:50 PM43 °FRain showers. Scattered clouds.10 mph76%29.98 "Hg4 mi
7:20 PM46 °FScattered showers. Scattered clouds.2 mph53%29.95 "HgN/A
6:50 PM46 °FScattered showers. Passing clouds.7 mph57%29.95 "HgN/A
6:20 PM46 °FScattered showers. Scattered clouds.5 mph53%29.95 "HgN/A
5:50 PM48 °FScattered clouds.6 mph43%29.95 "HgN/A
5:20 PM48 °FScattered clouds.7 mph46%29.95 "HgN/A
4:50 PM48 °FScattered clouds.6 mph54%29.95 "HgN/A
4:20 PM46 °FScattered showers. Scattered clouds.10 mph57%29.95 "HgN/A
3:50 PM46 °FScattered showers. Scattered clouds.10 mph62%29.95 "HgN/A
3:20 PM45 °FScattered showers. Broken clouds.7 mph66%29.95 "HgN/A
2:50 PM43 °FBroken clouds.6 mph76%29.95 "HgN/A
2:20 PM43 °FScattered showers. Broken clouds.10 mph76%29.95 "HgN/A
1:50 PM43 °FSprinkles. Broken clouds.8 mph87%29.95 "HgN/A
1:20 PM43 °FLight rain. Scattered clouds.8 mph81%29.95 "HgN/A
12:50 PM41 °FLight rain. Scattered clouds.9 mph76%29.95 "HgN/A
12:20 PM43 °FSprinkles. Scattered clouds.10 mph71%29.95 "HgN/A
11:50 AM45 °FScattered clouds.12 mph71%29.95 "HgN/A
11:20 AM41 °FScattered clouds.9 mph87%29.95 "HgN/A
10:50 AM43 °FScattered clouds.13 mph81%29.92 "HgN/A
10:20 AM41 °FScattered clouds.10 mph87%29.92 "HgN/A
9:50 AM41 °FBroken clouds.10 mph93%29.92 "HgN/A
9:20 AM39 °FScattered clouds.9 mph100%29.92 "Hg4 mi
7:50 AM37 °FDrizzle. Fog.7 mph100%29.89 "Hg2 mi
6:50 AM36 °FDrizzle. Fog.8 mph100%29.89 "Hg2 mi
5:50 AM36 °FPassing clouds.8 mph100%29.86 "Hg4 mi
5:20 AM36 °FPassing clouds.8 mph100%29.86 "Hg5 mi
4:50 AM37 °FPassing clouds.8 mph93%29.86 "Hg5 mi
3:50 AM37 °FPassing clouds.8 mph100%29.83 "Hg5 mi
3:20 AM37 °FPassing clouds.6 mph100%29.83 "HgN/A
2:50 AM37 °FPassing clouds.9 mph100%29.83 "HgN/A
2:20 AM37 °FPassing clouds.7 mph100%29.83 "HgN/A
Weather by CustomWeather, © 2016

See weather overviewHow to use our weather pages